Location: ?astrovice
(49.6513°N, 14.9287°E)
Time: 07:43:27
(UTC+00:00)

STARLINK-1143 - Visible Passes

Search period start: 11 August 2020 00:00
Search period end: 21 August 2020 00:00
Orbit: 549 x 551 km, 53.0° (Epoch: 11 August)

Date Brightness Start Highest point End Pass type
(mag) Time Alt. Az. Time Alt. Az. Time Alt. Az.
11 Aug 4.3 20:04:24 10° WNW 20:08:28 52° N 20:12:31 10° E visible
11 Aug 3.6 21:44:08 10° WNW 21:48:09 82° NW 21:48:09 82° NW visible
12 Aug 4.3 19:58:58 10° WNW 20:03:02 53° N 20:06:48 12° E visible
12 Aug 3.7 21:38:40 10° WNW 21:42:25 70° W 21:42:25 70° W visible
13 Aug 4.2 19:53:31 10° WNW 19:57:37 56° N 20:01:07 14° E visible
13 Aug 3.9 21:33:12 10° WNW 21:36:44 57° WSW 21:36:44 57° WSW visible
14 Aug 4.0 19:48:04 10° WNW 19:52:11 60° NNE 19:55:28 15° E visible
14 Aug 4.2 21:27:45 10° WNW 21:31:06 47° WSW 21:31:06 47° WSW visible
15 Aug 3.9 19:42:37 10° WNW 19:46:46 66° NNE 19:49:52 17° E visible
15 Aug 4.5 21:22:19 10° WNW 21:25:30 38° WSW 21:25:30 38° WSW visible
16 Aug 3.7 19:37:10 10° WNW 19:41:20 75° NNE 19:44:18 18° ESE visible
16 Aug 4.8 21:16:57 10° WNW 21:19:56 32° WSW 21:19:56 32° WSW visible
17 Aug 3.6 19:31:43 10° WNW 19:35:52 85° NNE 19:38:47 19° ESE visible
17 Aug 5.1 21:11:37 10° W 21:14:25 26° WSW 21:14:25 26° WSW visible
18 Aug 3.6 19:26:15 10° WNW 19:30:25 82° SSW 19:33:18 19° ESE visible
18 Aug 5.4 21:06:21 10° W 21:08:56 21° WSW 21:08:56 21° WSW visible
19 Aug 3.7 19:20:49 10° WNW 19:24:57 69° SSW 19:27:52 18° SE visible
19 Aug 5.7 21:01:14 10° W 21:03:30 17° SW 21:03:30 17° SW visible
20 Aug 4.0 19:15:23 10° WNW 19:19:27 56° SSW 19:22:29 17° SE visible
20 Aug 6.0 20:56:22 10° WSW 20:58:08 13° SW 20:58:08 13° SW visible
